SCP
0 0 0 -0 0 0 0 0 2 13 12 9 7 6 6 5 6 6 4 3 3 3 4 3 3 1 1 1 1 1 1 0
0 0 0 0 -0 0 0 0 0 13 15 11 8 5 5 5 4 4 5 4 3 3 5 4 3 2 1 1 2 1 1 0
0 0 0 0 0 0 0 0 0 4 11 11 10 8 7 6 5 5 5 4 4 4 5 4 3 2 1 2 2 1 1 0
0 0 0 0 0 0 0 0 0 1 9 11 8 10 6 6 6 6 6 5 4 4 5 5 4 3 2 1 2 1 1 0
0 0 -0 -0 0 0 0 0 -0 0 1 7 5 3 5 8 7 5 6 5 5 4 4 6 5 4 2 2 2 1 1 0
0 0 0 0 -0 -0 0 0 0 0 0 4 6 4 4 6 6 5 5 5 4 3 4 6 5 4 2 2 2 1 0 0
0 0 0 0 0 -0 -0 0 0 0 -0 1 4 6 4 4 6 5 5 4 4 3 4 4 5 5 3 3 2 1 0 0
0 0 0 0 0 0 -0 0 0 0 0 0 1 6 5 4 5 7 5 3 5 4 3 4 6 4 4 3 1 0 0 0
0 0 0 0 0 0 0 0 0 0 0 0 0 1 6 5 4 5 7 7 5 5 4 5 5 5 3 2 1 0 0 0
0 0 -0 0 0 0 0 0 0 0 0 0 0 0 0 4 3 2 5 5 7 5 6 5 6 6 3 1 0 0 0 0
0 -0 -0 0 0 0 0 0 0 0 0 0 0 0 0 0 0 0 0 1 1 4 8 7 8 5 3 1 0 0 0 0
0 0 -0 0 -0 -0 0 0 0 0 0 0 0 0 0 0 0 0 0 0 0 0 2 4 5 3 2 1 0 0 0 0
0 0 -0 -0 0 -0 0 0 0 0 0 0 0 0 0 0 0 0 0 0 0 0 0 1 1 2 2 2 1 0 0 0
-0 -0 0 -0 0 0 -0 0 0 0 0 0 0 0 0 0 0 0 0 0 0 0 0 0 0 1 2 1 1 1 0 0
-0 -0 -0 -0 0 0 -0 -0 0 0 0 0 0 0 0 0 0 0 0 0 0 0 0 0 0 0 0 1 1 1 0 0
0 0 0 0 -0 0 0 -0 -0 -0 0 0 0 0 0 0 0 0 0 0 0 0 0 0 0 0 0 0 0 0 0 0
0 -0 0 0 0 -0 0 0 -0 -0 -0 0 0 0 0 0 0 0 0 0 0 0 0 0 0 0 0 0 0 0 0 0
-0 0 0 -0 -0 -0 -0 -0 -0 -0 -0 -0 -0 -0 -0 0 0 0 0 0 0 0 0 0 0 0 0 0 0 0 0 0
0 0 0 0 0 -0 -0 -0 -0 0 0 -0 -0 -0 -0 -0 -0 -0 0 0 0 0 0 0 0 0 0 0 0 0 0 0
Wind_Speed_500mb
81 85 83 79 80 62 66 87 66 87 87 88 82 87 80 80 94 101 99 107 104 97 92 91 88 82 80 77 72 74 70 63
81 91 97 82 83 84 86 70 84 79 89 89 83 87 85 85 92 100 97 107 113 103 100 94 92 90 89 88 80 83 73 67
91 62 54 69 85 84 75 74 87 83 91 92 97 96 100 100 96 95 98 107 111 110 102 100 97 94 92 94 88 83 75 73
96 100 81 66 65 61 57 76 95 73 80 92 95 98 101 92 95 98 95 101 111 110 106 99 99 100 100 100 103 98 88 82
89 96 91 89 92 77 56 59 75 59 90 94 96 102 99 103 94 95 97 100 105 113 112 100 105 105 99 99 107 103 98 95
82 79 70 67 82 82 69 47 63 72 63 93 97 96 88 97 101 94 98 100 106 109 120 107 105 108 102 102 111 109 98 101
84 90 89 81 71 63 64 57 32 70 74 78 93 101 101 96 100 105 94 103 101 105 118 117 107 111 111 114 113 116 113 105
97 91 100 104 93 75 71 53 52 39 69 68 74 105 103 104 109 114 108 95 98 110 116 114 121 113 117 117 117 116 117 110
98 97 94 100 99 97 81 72 50 37 26 67 91 96 99 109 107 109 116 124 109 117 121 114 121 124 120 116 122 120 116 112
92 101 99 95 102 106 94 85 74 49 25 12 55 23 60 98 96 104 111 125 115 115 119 119 123 121 122 118 116 119 116 115
92 93 91 92 92 98 103 84 84 72 53 51 28 8 19 28 36 72 88 88 95 95 114 119 115 121 114 115 113 115 114 113
71 81 80 80 84 87 93 96 85 91 85 73 75 36 17 20 22 20 49 49 53 49 86 102 100 105 109 118 119 117 118 112
55 67 75 75 79 84 83 88 89 100 87 94 83 80 52 25 23 20 55 34 68 71 59 64 73 94 101 111 113 118 124 116
54 69 77 77 72 77 68 83 82 84 84 96 93 92 84 75 50 33 10 12 40 59 63 65 75 94 107 114 117 125 125 121
55 59 67 76 71 68 77 74 84 81 80 80 76 89 84 79 71 59 47 35 20 18 21 47 90 67 72 112 124 126 130 123
57 59 61 64 72 69 70 72 69 70 76 82 82 66 64 70 71 66 61 53 48 43 29 22 10 19 14 96 97 111 104 124
51 54 59 61 73 64 67 68 62 66 77 72 61 66 69 56 59 55 58 58 58 48 45 41 35 26 22 43 51 97 99 117
52 51 53 61 67 63 61 64 68 62 69 63 60 57 55 61 51 50 52 42 43 56 46 43 40 36 37 25 13 32 93 78
47 48 49 50 60 66 52 57 66 67 62 57 57 59 56 49 48 52 53 54 49 39 38 42 42 37 43 34 37 9 37 54
Wind_Direction_500mb
297 295 291 282 280 274 251 245 248 216 224 227 224 205 207 208 201 209 205 203 203 200 202 202 202 204 198 192 194 199 197 187
286 287 285 287 282 276 265 258 239 217 211 219 221 212 203 203 199 211 208 205 203 199 200 201 200 207 204 197 194 198 197 189
360 353 332 296 282 284 269 256 249 230 226 220 221 222 204 202 202 207 212 207 201 199 198 201 206 209 204 196 194 197 196 189
347 346 340 334 329 309 296 280 265 231 224 218 221 220 215 205 201 201 206 207 204 200 199 205 210 212 209 206 201 205 194 193
353 344 329 339 324 324 303 284 267 254 224 224 222 219 211 208 204 205 199 208 209 205 205 202 213 214 210 212 210 208 201 192
360 356 348 341 321 326 329 305 264 261 280 216 219 227 222 218 214 207 202 207 210 206 208 201 211 216 217 216 212 209 202 206
358 7 7 5 0 346 337 317 305 257 280 230 221 219 219 221 216 214 209 200 206 207 206 203 209 219 217 216 218 215 213 212
1 359 1 13 11 14 10 342 327 283 268 225 242 218 219 218 221 218 210 219 204 208 206 204 206 216 218 218 217 217 216 217
1 1 0 8 16 21 22 17 7 350 283 237 245 225 217 221 221 219 219 216 219 211 212 210 205 215 219 220 220 221 222 221
358 360 3 4 20 19 15 20 28 24 19 153 218 237 219 217 226 222 222 218 222 212 212 209 205 212 219 222 225 224 222 221
1 360 3 9 17 24 20 20 29 29 50 55 74 156 197 193 220 218 221 223 209 208 207 207 205 210 222 227 228 232 231 227
359 5 5 9 21 24 25 30 25 43 48 53 61 91 179 120 174 192 223 248 239 244 218 211 210 215 224 224 228 232 229 233
354 2 7 9 15 20 23 25 29 44 43 50 49 64 78 103 87 138 211 225 231 242 230 227 228 224 222 223 226 230 232 235
2 5 10 14 13 13 18 17 28 37 40 44 42 45 52 56 62 71 97 201 222 227 234 230 221 232 231 228 230 230 226 232
7 4 5 11 15 17 14 22 24 34 38 42 40 42 40 45 49 50 53 63 96 183 198 221 226 237 222 224 231 228 224 226
8 6 3 3 13 14 11 24 23 28 34 42 37 35 39 40 41 42 38 43 48 55 69 77 176 204 266 217 211 219 234 230
7 6 4 4 2 17 8 17 23 24 38 30 33 29 33 29 35 38 33 31 35 37 39 37 31 43 62 193 203 211 213 224
2 6 7 360 358 8 6 14 17 25 31 26 21 28 21 30 31 28 31 31 35 27 24 28 32 32 35 105 127 201 210 216
1 2 4 5 356 3 6 11 8 16 22 20 16 22 22 10 23 23 28 23 25 25 12 8 18 11 43 36 26 113 183 194
Wind_Speed_850mb
81 85 83 79 80 62 66 87 66 87 87 88 82 87 80 80 94 101 99 107 104 97 92 91 88 82 80 77 72 74 70 63
81 91 97 82 83 84 86 70 84 79 89 89 83 87 85 85 92 100 97 107 113 103 100 94 92 90 89 88 80 83 73 67
91 62 54 69 85 84 75 74 87 83 91 92 97 96 100 100 96 95 98 107 111 110 102 100 97 94 92 94 88 83 75 73
96 100 81 66 65 61 57 76 95 73 80 92 95 98 101 92 95 98 95 101 111 110 106 99 99 100 100 100 103 98 88 82
89 96 91 89 92 77 56 59 75 59 90 94 96 102 99 103 94 95 97 100 105 113 112 100 105 105 99 99 107 103 98 95
82 79 70 67 82 82 69 47 63 72 63 93 97 96 88 97 101 94 98 100 106 109 120 107 105 108 102 102 111 109 98 101
84 90 89 81 71 63 64 57 32 70 74 78 93 101 101 96 100 105 94 103 101 105 118 117 107 111 111 114 113 116 113 105
97 91 100 104 93 75 71 53 52 39 69 68 74 105 103 104 109 114 108 95 98 110 116 114 121 113 117 117 117 116 117 110
98 97 94 100 99 97 81 72 50 37 26 67 91 96 99 109 107 109 116 124 109 117 121 114 121 124 120 116 122 120 116 112
92 101 99 95 102 106 94 85 74 49 25 12 55 23 60 98 96 104 111 125 115 115 119 119 123 121 122 118 116 119 116 115
92 93 91 92 92 98 103 84 84 72 53 51 28 8 19 28 36 72 88 88 95 95 114 119 115 121 114 115 113 115 114 113
71 81 80 80 84 87 93 96 85 91 85 73 75 36 17 20 22 20 49 49 53 49 86 102 100 105 109 118 119 117 118 112
55 67 75 75 79 84 83 88 89 100 87 94 83 80 52 25 23 20 55 34 68 71 59 64 73 94 101 111 113 118 124 116
54 69 77 77 72 77 68 83 82 84 84 96 93 92 84 75 50 33 10 12 40 59 63 65 75 94 107 114 117 125 125 121
55 59 67 76 71 68 77 74 84 81 80 80 76 89 84 79 71 59 47 35 20 18 21 47 90 67 72 112 124 126 130 123
57 59 61 64 72 69 70 72 69 70 76 82 82 66 64 70 71 66 61 53 48 43 29 22 10 19 14 96 97 111 104 124
51 54 59 61 73 64 67 68 62 66 77 72 61 66 69 56 59 55 58 58 58 48 45 41 35 26 22 43 51 97 99 117
52 51 53 61 67 63 61 64 68 62 69 63 60 57 55 61 51 50 52 42 43 56 46 43 40 36 37 25 13 32 93 78
47 48 49 50 60 66 52 57 66 67 62 57 57 59 56 49 48 52 53 54 49 39 38 42 42 37 43 34 37 9 37 54
Wind_Direction_850mb
297 295 291 282 280 274 251 245 248 216 224 227 224 205 207 208 201 209 205 203 203 200 202 202 202 204 198 192 194 199 197 187
286 287 285 287 282 276 265 258 239 217 211 219 221 212 203 203 199 211 208 205 203 199 200 201 200 207 204 197 194 198 197 189
360 353 332 296 282 284 269 256 249 230 226 220 221 222 204 202 202 207 212 207 201 199 198 201 206 209 204 196 194 197 196 189
347 346 340 334 329 309 296 280 265 231 224 218 221 220 215 205 201 201 206 207 204 200 199 205 210 212 209 206 201 205 194 193
353 344 329 339 324 324 303 284 267 254 224 224 222 219 211 208 204 205 199 208 209 205 205 202 213 214 210 212 210 208 201 192
360 356 348 341 321 326 329 305 264 261 280 216 219 227 222 218 214 207 202 207 210 206 208 201 211 216 217 216 212 209 202 206
358 7 7 5 0 346 337 317 305 257 280 230 221 219 219 221 216 214 209 200 206 207 206 203 209 219 217 216 218 215 213 212
1 359 1 13 11 14 10 342 327 283 268 225 242 218 219 218 221 218 210 219 204 208 206 204 206 216 218 218 217 217 216 217
1 1 0 8 16 21 22 17 7 350 283 237 245 225 217 221 221 219 219 216 219 211 212 210 205 215 219 220 220 221 222 221
358 360 3 4 20 19 15 20 28 24 19 153 218 237 219 217 226 222 222 218 222 212 212 209 205 212 219 222 225 224 222 221
1 360 3 9 17 24 20 20 29 29 50 55 74 156 197 193 220 218 221 223 209 208 207 207 205 210 222 227 228 232 231 227
359 5 5 9 21 24 25 30 25 43 48 53 61 91 179 120 174 192 223 248 239 244 218 211 210 215 224 224 228 232 229 233
354 2 7 9 15 20 23 25 29 44 43 50 49 64 78 103 87 138 211 225 231 242 230 227 228 224 222 223 226 230 232 235
2 5 10 14 13 13 18 17 28 37 40 44 42 45 52 56 62 71 97 201 222 227 234 230 221 232 231 228 230 230 226 232
7 4 5 11 15 17 14 22 24 34 38 42 40 42 40 45 49 50 53 63 96 183 198 221 226 237 222 224 231 228 224 226
8 6 3 3 13 14 11 24 23 28 34 42 37 35 39 40 41 42 38 43 48 55 69 77 176 204 266 217 211 219 234 230
7 6 4 4 2 17 8 17 23 24 38 30 33 29 33 29 35 38 33 31 35 37 39 37 31 43 62 193 203 211 213 224
2 6 7 360 358 8 6 14 17 25 31 26 21 28 21 30 31 28 31 31 35 27 24 28 32 32 35 105 127 201 210 216
1 2 4 5 356 3 6 11 8 16 22 20 16 22 22 10 23 23 28 23 25 25 12 8 18 11 43 36 26 113 183 194